Weather in Kozhilo

Russia / Udmurt Republic     58°00′26″N   52°59′46″E
temp.,
°C
wind,
m/s
gust,
m/s
humid.,
%
clouds,
%
prec.,
mm/h
press.,
hPa
HPBL,
m
18 april, sun
sun1801:00+3nnw24835 0.0 102355
04:00+1nw24873 0.0 102353
07:00+2nne4118930 0.0 1023514
10:00+3ne68655 0.0 1025937
13:00+4ne68473 0.0 10271405
16:00+5ne684558 0.0 10291739
19:00+2ene49581 0.0 1030400
22:000ene411715 0.0 1032461
19 april, mon
mon1901:00−1ene411725 0.0 1033393
04:00−2ene48773 0.0 1035279
07:00−1ene47660 0.0 1035355
10:00+2ene46393 0.0 10361384
13:00+4ene45364 0.0 10351615
16:00+5ene45385 0.0 10341619
19:00+2ene35590 0.0 103499
22:00−1ene24670 0.0 103664
20 april, tue
tue2001:00−2e22660 0.0 103622
04:00−2e11610 0.0 103715
07:000e11500 0.0 1037134
10:00+4nne00365 0.0 1036764
13:00+7nw11322 0.0 10351079
16:00+7nw11310 0.0 10341050
19:00+5n11450 0.0 103210
22:00+3ene00510 0.0 103310
21 april, wed
wed2101:00+1ese22590 0.0 103311
04:000ese22640 0.0 103311
07:00+3se23580 0.0 1033134
10:00+8se454044 0.0 1032800
13:00+11sse573516 0.0 10301338
16:00+12sse6836100 0.0 10281409
19:00+9se4950100 0.0 1028268
22:00+6se51461100 0.0 1028370
22 april, thu
thu2201:00+5sse51460100 0.0 1027401
04:00+4sse5136299 0.0 1027387
07:00+5s61362100 0.0 1027922
10:00+4s61192100 0.0 1028767
13:00+3s51196100 0.5 1029641
16:00+4s51097100 0.5 1030703
19:00+4s41097100 0.0 1030612
22:00+4s4997100 0.1 1030552